N395T KISP-0B8

Flight info

Callsign N395T
Flight time N/A
Altitude 8000
Route VFR
Aircraft PC12/L-SDFGRWY/S

Departure

Time 2026-04-27 15:53
Airport Long Island MacArthur Airport (KISP)

Arrival

Time N/A
Airport 0B8
Time Latitude Longitude Altitude Speed Heading
2026-04-27 15:45 40.79823 -73.10899 91 ft 0 kts 91°
2026-04-27 15:50 40.79823 -73.10893 91 ft 5 kts 91°
2026-04-27 15:50 40.79810 -73.10817 91 ft 9 kts 93°
2026-04-27 15:50 40.79803 -73.10738 92 ft 8 kts 107°
2026-04-27 15:51 40.79746 -73.10718 93 ft 11 kts 182°
2026-04-27 15:51 40.79659 -73.10720 93 ft 14 kts 180°
2026-04-27 15:51 40.79554 -73.10721 93 ft 16 kts 180°
2026-04-27 15:51 40.79435 -73.10719 92 ft 17 kts 179°
2026-04-27 15:52 40.79333 -73.10715 94 ft 8 kts 156°
2026-04-27 15:52 40.79314 -73.10660 95 ft 5 kts 65°
2026-04-27 15:52 40.79369 -73.10580 97 ft 28 kts 45°
2026-04-27 15:52 40.79636 -73.10231 95 ft 79 kts 45°
2026-04-27 15:53 40.80052 -73.09689 408 ft 86 kts 44°
2026-04-27 15:53 40.80540 -73.09087 708 ft 107 kts 44°
2026-04-27 15:53 40.81102 -73.08319 1002 ft 130 kts 50°
2026-04-27 15:53 40.81651 -73.07297 1492 ft 143 kts 57°
2026-04-27 15:54 40.82239 -73.06092 1796 ft 168 kts 57°
2026-04-27 15:54 40.82902 -73.04766 2147 ft 177 kts 56°
2026-04-27 15:54 40.83594 -73.03385 2512 ft 184 kts 57°
2026-04-27 15:54 40.84308 -73.01975 2871 ft 186 kts 57°
2026-04-27 15:55 40.85022 -73.00544 3230 ft 187 kts 59°
2026-04-27 15:55 40.85452 -72.99533 3473 ft 187 kts 62°
2026-04-27 15:55 40.86261 -72.97508 3941 ft 189 kts 62°
2026-04-27 15:55 40.86893 -72.95988 4301 ft 189 kts 61°
2026-04-27 15:56 40.87530 -72.94471 4663 ft 188 kts 61°
2026-04-27 15:56 40.88163 -72.92961 5020 ft 186 kts 61°
2026-04-27 15:56 40.88786 -72.91473 5375 ft 185 kts 61°
2026-04-27 15:56 40.89422 -72.89951 5494 ft 195 kts 61°
2026-04-27 15:57 40.90097 -72.88335 5497 ft 205 kts 61°
2026-04-27 15:57 40.90801 -72.86650 5503 ft 213 kts 61°
2026-04-27 15:57 40.91516 -72.84937 5501 ft 216 kts 61°
2026-04-27 15:57 40.92251 -72.83177 5505 ft 218 kts 61°
2026-04-27 15:58 40.92985 -72.81421 5504 ft 219 kts 61°
2026-04-27 15:58 40.93723 -72.79656 5508 ft 219 kts 61°
2026-04-27 15:58 40.94459 -72.77890 5508 ft 219 kts 61°
2026-04-27 15:58 40.95193 -72.76126 5515 ft 219 kts 62°
2026-04-27 15:59 40.95921 -72.74378 5514 ft 220 kts 61°
2026-04-27 15:59 40.96658 -72.72606 5516 ft 219 kts 62°
2026-04-27 15:59 40.97395 -72.70834 5509 ft 219 kts 61°
2026-04-27 15:59 40.98128 -72.69071 5510 ft 219 kts 61°
2026-04-27 16:00 40.98866 -72.67294 5506 ft 219 kts 62°
2026-04-27 16:00 40.99350 -72.66128 5507 ft 219 kts 62°
2026-04-27 16:00 41.00326 -72.63777 5503 ft 219 kts 61°
2026-04-27 16:00 41.01059 -72.62010 5501 ft 218 kts 61°
2026-04-27 16:01 41.01790 -72.60244 5503 ft 218 kts 62°
2026-04-27 16:01 41.02515 -72.58495 5504 ft 218 kts 62°
2026-04-27 16:01 41.02999 -72.57325 5501 ft 218 kts 61°
2026-04-27 16:01 41.03727 -72.55566 5503 ft 218 kts 62°
2026-04-27 16:02 41.04455 -72.53805 5494 ft 218 kts 62°
2026-04-27 16:02 41.05179 -72.52055 5493 ft 217 kts 62°
2026-04-27 16:02 41.05908 -72.50289 5492 ft 217 kts 62°
2026-04-27 16:02 41.06636 -72.48527 5436 ft 219 kts 62°
2026-04-27 16:03 41.07375 -72.46735 5296 ft 223 kts 62°
2026-04-27 16:03 41.08122 -72.44921 5148 ft 225 kts 62°
2026-04-27 16:03 41.08874 -72.43093 4994 ft 226 kts 62°
2026-04-27 16:03 41.09627 -72.41265 4835 ft 226 kts 62°
2026-04-27 16:04 41.10371 -72.39461 4686 ft 225 kts 62°
2026-04-27 16:04 41.11126 -72.37625 4527 ft 221 kts 62°
2026-04-27 16:04 41.11887 -72.35923 4350 ft 215 kts 56°
2026-04-27 16:04 41.12751 -72.34312 4170 ft 212 kts 54°
2026-04-27 16:05 41.13623 -72.32737 3989 ft 211 kts 54°
2026-04-27 16:05 41.14489 -72.31173 3811 ft 210 kts 54°
2026-04-27 16:05 41.15353 -72.29609 3641 ft 210 kts 54°
2026-04-27 16:05 41.16219 -72.28041 3497 ft 208 kts 54°
2026-04-27 16:06 41.17053 -72.26524 3501 ft 200 kts 54°
2026-04-27 16:06 41.17865 -72.25048 3490 ft 195 kts 54°
2026-04-27 16:06 41.18634 -72.23641 3297 ft 179 kts 55°
2026-04-27 16:06 41.19308 -72.22352 3005 ft 162 kts 56°
2026-04-27 16:07 41.19906 -72.21128 2651 ft 154 kts 57°
2026-04-27 16:07 41.20465 -72.19963 2407 ft 147 kts 57°
2026-04-27 16:07 41.21010 -72.18822 2269 ft 149 kts 57°
2026-04-27 16:07 41.21555 -72.17664 2205 ft 145 kts 57°
2026-04-27 16:08 41.22084 -72.16508 2067 ft 149 kts 59°
2026-04-27 16:08 41.22583 -72.15322 1702 ft 147 kts 61°
2026-04-27 16:08 41.23037 -72.14113 1399 ft 147 kts 63°
2026-04-27 16:08 41.23471 -72.12877 1335 ft 144 kts 64°
2026-04-27 16:09 41.23854 -72.11725 1361 ft 130 kts 65°
2026-04-27 16:09 41.24436 -72.09635 1085 ft 105 kts 69°
2026-04-27 16:09 41.24654 -72.08833 949 ft 83 kts 67°
2026-04-27 16:10 41.25070 -72.07401 778 ft 82 kts 70°
2026-04-27 16:10 41.25390 -72.05932 523 ft 86 kts 81°
2026-04-27 16:11 41.25468 -72.05134 333 ft 85 kts 91°
2026-04-27 16:11 41.25273 -72.03634 25 ft 77 kts 99°
2026-04-27 16:12 41.25159 -72.02849 12 ft 17 kts 101°
2026-04-27 16:12 41.25144 -72.02789 12 ft 6 kts 38°
2026-04-27 16:12 41.25183 -72.03014 15 ft 15 kts 282°
2026-04-27 16:13 41.25202 -72.03148 16 ft 13 kts 281°
2026-04-27 16:13 41.25275 -72.03072 17 ft 8 kts 60°
2026-04-27 16:13 41.25291 -72.03035 16 ft 1 kts 58°
2026-04-27 16:14 41.25330 -72.03036 16 ft 6 kts 331°
2026-04-27 16:14 41.25332 -72.03105 15 ft 4 kts 237°
2026-04-27 16:15 41.25348 -72.03119 15 ft 0 kts 67°